| time (UTC) | temp F | wind direction | speed MPH | gust MPH | rain 1hr in | rain 24hr in | rain mn in | humidity % | barometer mb |
| 20260905074344 | 62 | 158 | 1.0 | 2.0 | 0.00 | 0.01 | 0.00 | 61 | 1005.7 |
| 20260905073352 | 63 | 134 | 0.0 | 5.0 | 0.00 | 0.01 | 0.00 | 60 | 1005.7 |
| 20260905073049 | 62 | 259 | 1.0 | 5.0 | 0.00 | 0.01 | 0.00 | 60 | 1005.1 |
| 20260905072848 | 63 | 324 | 1.0 | 5.0 | 0.00 | 0.01 | 0.00 | 60 | 1005.7 |
| 20260905072339 | 63 | 277 | 1.0 | 5.0 | 0.00 | 0.01 | 0.00 | 59 | 1005.7 |
| 20260905071844 | 63 | 234 | 1.0 | 9.0 | 0.00 | 0.01 | 0.00 | 59 | 1005.7 |
| 20260905071547 | 62 | 292 | 1.0 | 9.0 | 0.00 | 0.01 | 0.00 | 59 | 1005.1 |
| 20260905071343 | 63 | 109 | 1.0 | 9.0 | 0.00 | 0.01 | 0.00 | 59 | 1005.8 |
| 20260905070837 | 62 | 273 | 1.0 | 6.0 | 0.00 | 0.01 | 0.00 | 59 | 1005.8 |
| 20260905070337 | 62 | 351 | 1.0 | 2.0 | 0.00 | 0.01 | 0.00 | 60 | 1005.9 |
| 20260905070100 | 61 | 120 | 0.0 | 1.0 | 0.00 | 0.01 | 0.00 | 60 | 1005.4 |
| 20260905065833 | 62 | 200 | 0.0 | 1.0 | 0.00 | 0.01 | 0.00 | 60 | 1006.0 |
| 20260905065334 | 62 | 133 | 0.0 | 2.0 | 0.00 | 0.01 | 0.00 | 60 | 1006.1 |
| 20260905064911 | 62 | 250 | 0.0 | 2.0 | 0.00 | 0.01 | 0.00 | 59 | 1006.2 |
| 20260905064551 | 61 | 257 | 0.0 | 2.0 | 0.00 | 0.01 | 0.00 | 59 | 1005.7 |
| 20260905064351 | 62 | 247 | 0.0 | 2.0 | 0.00 | 0.01 | 0.00 | 59 | 1006.2 |
| 20260905063848 | 62 | 232 | 0.0 | 2.0 | 0.00 | 0.01 | 0.00 | 59 | 1006.2 |
| 20260905063347 | 61 | 95 | 0.0 | 2.0 | 0.00 | 0.01 | 0.00 | 60 | 1006.3 |
| 20260905063047 | 60 | 295 | 0.0 | 2.0 | 0.00 | 0.01 | 0.00 | 60 | 1005.7 |
| 20260905062846 | 61 | 132 | 0.0 | 2.0 | 0.00 | 0.01 | 0.00 | 60 | 1006.2 |
| 20260905062345 | 60 | 245 | 0.0 | 2.0 | 0.00 | 0.01 | 0.00 | 60 | 1006.4 |
| 20260905061843 | 60 | 257 | 0.0 | 0.0 | 0.00 | 0.01 | 0.00 | 61 | 1006.4 |
| 20260905061541 | 60 | 257 | 0.0 | 0.0 | 0.00 | 0.01 | 0.00 | 62 | 1005.9 |
| 20260905061340 | 60 | 257 | 0.0 | 0.0 | 0.00 | 0.01 | 0.00 | 62 | 1006.5 |
| 20260905060838 | 60 | 257 | 0.0 | 0.0 | 0.00 | 0.01 | 0.00 | 63 | 1006.4 |
| 20260905060337 | 61 | 257 | 0.0 | 0.0 | 0.00 | 0.01 | 0.00 | 63 | 1006.6 |
| 20260905060051 | 60 | 257 | 0.0 | 0.0 | 0.00 | 0.01 | 0.00 | 63 | 1006.1 |
| 20260905055850 | 61 | 257 | 0.0 | 0.0 | 0.00 | 0.01 | 0.00 | 63 | 1006.6 |
| 20260905055349 | 61 | 257 | 0.0 | 0.0 | 0.00 | 0.01 | 0.00 | 63 | 1006.7 |
| 20260905054848 | 61 | 257 | 0.0 | 0.0 | 0.00 | 0.01 | 0.00 | 63 | 1006.7 |
| 20260905054557 | 60 | 257 | 0.0 | 0.0 | 0.00 | 0.01 | 0.00 | 63 | 1006.1 |
| 20260905054347 | 61 | 257 | 0.0 | 0.0 | 0.00 | 0.01 | 0.00 | 63 | 1006.7 |
| 20260905053843 | 61 | 257 | 0.0 | 0.0 | 0.00 | 0.01 | 0.00 | 65 | 1006.7 |
| 20260905053342 | 62 | 181 | 0.0 | 0.0 | 0.00 | 0.01 | 0.00 | 65 | 1006.8 |
| 20260905053044 | 61 | 181 | 0.0 | 0.0 | 0.00 | 0.01 | 0.00 | 65 | 1006.3 |
| 20260905052840 | 62 | 181 | 0.0 | 0.0 | 0.00 | 0.01 | 0.00 | 65 | 1006.8 |
| 20260905052341 | 62 | 181 | 0.0 | 0.0 | 0.00 | 0.01 | 0.00 | 65 | 1006.8 |
| 20260905051838 | 62 | 181 | 0.0 | 0.0 | 0.00 | 0.01 | 0.00 | 64 | 1006.8 |
| 20260905051553 | 62 | 181 | 0.0 | 0.0 | 0.00 | 0.01 | 0.00 | 64 | 1006.3 |
| 20260905050850 | 62 | 181 | 0.0 | 0.0 | 0.00 | 0.01 | 0.00 | 64 | 1006.8 |
| 20260905050049 | 62 | 177 | 0.0 | 0.0 | 0.00 | 0.01 | 0.00 | 64 | 1006.4 |
| 20260905045846 | 63 | 177 | 0.0 | 0.0 | 0.00 | 0.01 | 0.00 | 64 | 1006.9 |
| 20260905045344 | 63 | 177 | 0.0 | 1.0 | 0.00 | 0.01 | 0.00 | 63 | 1006.8 |
| 20260905044842 | 63 | 177 | 0.0 | 2.0 | 0.00 | 0.01 | 0.00 | 63 | 1006.7 |
| 20260905044543 | 63 | 177 | 0.0 | 2.0 | 0.00 | 0.01 | 0.00 | 63 | 1006.2 |
| 20260905044342 | 63 | 275 | 0.0 | 1.0 | 0.00 | 0.01 | 0.00 | 63 | 1006.7 |
| 20260905043859 | 63 | 283 | 0.0 | 2.0 | 0.00 | 0.01 | 0.00 | 63 | 1006.7 |
| 20260905043337 | 63 | 283 | 0.0 | 2.0 | 0.00 | 0.01 | 0.00 | 64 | 1006.5 |
| 20260905043055 | 62 | 250 | 0.0 | 0.0 | 0.00 | 0.01 | 0.00 | 64 | 1006.1 |
| 20260905042854 | 62 | 248 | 0.0 | 0.0 | 0.00 | 0.01 | 0.00 | 65 | 1006.5 |
| 20260905042349 | 62 | 261 | 0.0 | 0.0 | 0.00 | 0.01 | 0.00 | 65 | 1006.6 |
| 20260905041906 | 62 | 261 | 0.0 | 0.0 | 0.00 | 0.01 | 0.00 | 65 | 1006.6 |
| 20260905041554 | 62 | 261 | 0.0 | 0.0 | 0.00 | 0.01 | 0.00 | 65 | 1006.1 |
| 20260905041345 | 63 | 261 | 0.0 | 0.0 | 0.00 | 0.01 | 0.00 | 65 | 1006.8 |
| 20260905040842 | 63 | 261 | 0.0 | 0.0 | 0.00 | 0.01 | 0.00 | 65 | 1006.7 |
| 20260905040403 | 63 | 261 | 0.0 | 0.0 | 0.00 | 0.01 | 0.00 | 65 | 1006.7 |
| 20260905040041 | 63 | 261 | 0.0 | 0.0 | 0.00 | 0.01 | 0.01 | 65 | 1006.2 |
| 20260905035840 | 63 | 261 | 0.0 | 0.0 | 0.00 | 0.01 | 0.01 | 65 | 1006.7 |
| 20260905035341 | 64 | 261 | 0.0 | 0.0 | 0.00 | 0.01 | 0.01 | 65 | 1006.7 |
| 20260905034836 | 64 | 261 | 0.0 | 0.0 | 0.00 | 0.01 | 0.01 | 64 | 1006.6 |
| 20260905034540 | 63 | 261 | 0.0 | 0.0 | 0.00 | 0.01 | 0.01 | 64 | 1006.0 |
| 20260905034336 | 64 | 261 | 0.0 | 0.0 | 0.00 | 0.01 | 0.01 | 64 | 1006.5 |
| 20260905033853 | 64 | 261 | 0.0 | 0.0 | 0.00 | 0.01 | 0.01 | 64 | 1006.6 |
| 20260905033348 | 65 | 261 | 0.0 | 0.0 | 0.00 | 0.01 | 0.01 | 63 | 1006.6 |
| 20260905033052 | 64 | 261 | 0.0 | 0.0 | 0.00 | 0.01 | 0.01 | 62 | 1006.1 |
| 20260905032844 | 65 | 261 | 0.0 | 0.0 | 0.00 | 0.01 | 0.01 | 62 | 1006.7 |
| 20260905032403 | 65 | 261 | 0.0 | 1.0 | 0.00 | 0.01 | 0.01 | 62 | 1006.7 |
| 20260905031840 | 65 | 261 | 0.0 | 1.0 | 0.00 | 0.01 | 0.01 | 62 | 1006.7 |
| 20260905031547 | 65 | 261 | 0.0 | 0.0 | 0.00 | 0.01 | 0.01 | 61 | 1006.1 |
| 20260905031341 | 65 | 261 | 0.0 | 0.0 | 0.00 | 0.01 | 0.01 | 61 | 1006.7 |
| 20260905030857 | 65 | 261 | 0.0 | 1.0 | 0.00 | 0.01 | 0.01 | 61 | 1006.7 |
| 20260905030335 | 66 | 261 | 0.0 | 1.0 | 0.00 | 0.01 | 0.01 | 61 | 1006.7 |
| 20260905030054 | 65 | 261 | 0.0 | 1.0 | 0.00 | 0.01 | 0.01 | 60 | 1006.2 |
| 20260905025853 | 66 | 261 | 0.0 | 1.0 | 0.00 | 0.01 | 0.01 | 61 | 1006.7 |
| 20260905025352 | 66 | 214 | 0.0 | 1.0 | 0.00 | 0.01 | 0.01 | 60 | 1006.7 |
| 20260905024847 | 66 | 214 | 0.0 | 1.0 | 0.00 | 0.01 | 0.01 | 59 | 1006.7 |
| 20260905024543 | 66 | 207 | 0.0 | 1.0 | 0.00 | 0.01 | 0.01 | 60 | 1006.2 |
| 20260905023843 | 66 | 234 | 0.0 | 2.0 | 0.00 | 0.01 | 0.01 | 61 | 1006.7 |
| 20260905023342 | 66 | 158 | 0.0 | 2.0 | 0.00 | 0.01 | 0.01 | 60 | 1006.8 |
| 20260905023042 | 66 | 264 | 0.0 | 1.0 | 0.00 | 0.01 | 0.01 | 59 | 1006.3 |
| 20260905022840 | 66 | 273 | 0.0 | 2.0 | 0.00 | 0.01 | 0.01 | 59 | 1006.9 |
| 20260905022339 | 66 | 231 | 0.0 | 2.0 | 0.00 | 0.01 | 0.01 | 60 | 1006.8 |
| 20260905021855 | 66 | 245 | 0.0 | 2.0 | 0.00 | 0.01 | 0.01 | 61 | 1006.7 |
| 20260905021556 | 65 | 248 | 0.0 | 0.0 | 0.00 | 0.01 | 0.01 | 61 | 1006.2 |
| 20260905021353 | 65 | 241 | 0.0 | 0.0 | 0.00 | 0.01 | 0.01 | 62 | 1006.8 |
| 20260905020852 | 65 | 252 | 0.0 | 0.0 | 0.00 | 0.01 | 0.01 | 63 | 1006.9 |
| 20260905020349 | 65 | 257 | 0.0 | 0.0 | 0.00 | 0.01 | 0.01 | 63 | 1007.0 |
| 20260905020056 | 65 | 257 | 0.0 | 0.0 | 0.00 | 0.01 | 0.01 | 63 | 1006.5 |
| 20260905015847 | 65 | 224 | 0.0 | 0.0 | 0.00 | 0.01 | 0.01 | 63 | 1007.0 |
| 20260905015347 | 65 | 223 | 0.0 | 1.0 | 0.00 | 0.01 | 0.01 | 63 | 1007.0 |
| 20260905014841 | 66 | 223 | 0.0 | 1.0 | 0.00 | 0.01 | 0.01 | 63 | 1007.1 |
| 20260905014542 | 65 | 223 | 0.0 | 1.0 | 0.00 | 0.01 | 0.01 | 62 | 1006.6 |
| 20260905014341 | 66 | 223 | 0.0 | 0.0 | 0.00 | 0.01 | 0.01 | 62 | 1007.1 |
| 20260905013858 | 66 | 223 | 0.0 | 0.0 | 0.00 | 0.01 | 0.01 | 61 | 1007.0 |
| 20260905013336 | 66 | 223 | 0.0 | 0.0 | 0.00 | 0.01 | 0.01 | 61 | 1007.2 |
| 20260905013059 | 66 | 223 | 0.0 | 1.0 | 0.00 | 0.01 | 0.01 | 61 | 1006.7 |
| 20260905012853 | 67 | 223 | 0.0 | 1.0 | 0.00 | 0.01 | 0.01 | 61 | 1007.2 |
| 20260905012352 | 67 | 223 | 0.0 | 3.0 | 0.00 | 0.01 | 0.01 | 59 | 1007.2 |
| 20260905011908 | 67 | 233 | 1.0 | 3.0 | 0.00 | 0.01 | 0.01 | 58 | 1007.1 |
| 20260905011548 | 67 | 211 | 0.0 | 1.0 | 0.00 | 0.01 | 0.01 | 59 | 1006.5 |
| 20260905011347 | 68 | 181 | 0.0 | 2.0 | 0.00 | 0.01 | 0.01 | 59 | 1007.1 |
| 20260905010905 | 68 | 107 | 0.0 | 2.0 | 0.00 | 0.01 | 0.01 | 58 | 1007.1 |
| 20260905010339 | 68 | 63 | 0.0 | 2.0 | 0.00 | 0.01 | 0.01 | 58 | 1007.0 |
| 20260905010106 | 68 | 62 | 0.0 | 2.0 | 0.00 | 0.01 | 0.01 | 58 | 1006.4 |
| 20260905005852 | 68 | 172 | 0.0 | 2.0 | 0.00 | 0.01 | 0.01 | 58 | 1006.8 |
| 20260905005411 | 68 | 278 | 0.0 | 2.0 | 0.00 | 0.01 | 0.01 | 60 | 1007.0 |
| 20260905004536 | 67 | 222 | 0.0 | 1.0 | 0.00 | 0.01 | 0.01 | 59 | 1006.5 |
| 20260905004436 | 68 | 222 | 0.0 | 1.0 | 0.00 | 0.01 | 0.01 | 60 | 1007.0 |
| 20260905003847 | 69 | 352 | 0.0 | 4.0 | 0.00 | 0.01 | 0.01 | 58 | 1006.9 |
| 20260905003346 | 69 | 221 | 0.0 | 4.0 | 0.00 | 0.01 | 0.01 | 58 | 1007.0 |
| 20260905003044 | 68 | 65 | 0.0 | 4.0 | 0.00 | 0.01 | 0.01 | 58 | 1006.3 |
| 20260905002843 | 69 | 267 | 0.0 | 2.0 | 0.00 | 0.01 | 0.01 | 59 | 1006.9 |
| 20260905002343 | 69 | 275 | 0.0 | 2.0 | 0.00 | 0.01 | 0.01 | 56 | 1007.0 |
| 20260905001915 | 69 | 288 | 0.0 | 2.0 | 0.00 | 0.01 | 0.01 | 57 | 1007.0 |
| 20260905001534 | 68 | 323 | 0.0 | 2.0 | 0.00 | 0.01 | 0.01 | 57 | 1006.4 |
| 20260905001333 | 69 | 258 | 0.0 | 1.0 | 0.00 | 0.01 | 0.01 | 58 | 1007.0 |
| 20260905000910 | 69 | 259 | 0.0 | 2.0 | 0.00 | 0.01 | 0.01 | 57 | 1007.1 |
| 20260905000349 | 69 | 246 | 0.0 | 2.0 | 0.00 | 0.01 | 0.01 | 57 | 1007.1 |
| 20260905000048 | 69 | 248 | 0.0 | 2.0 | 0.00 | 0.01 | 0.01 | 56 | 1006.5 |
| 20260904235847 | 69 | 241 | 0.0 | 2.0 | 0.00 | 0.01 | 0.01 | 57 | 1007.0 |
| 20260904235347 | 70 | 49 | 0.0 | 1.0 | 0.00 | 0.01 | 0.01 | 59 | 1007.0 |
| 20260904234845 | 70 | 291 | 0.0 | 0.0 | 0.00 | 0.01 | 0.01 | 56 | 1006.9 |
| 20260904234550 | 69 | 56 | 0.0 | 1.0 | 0.00 | 0.01 | 0.01 | 56 | 1006.3 |
| 20260904234345 | 70 | 354 | 0.0 | 1.0 | 0.00 | 0.01 | 0.01 | 57 | 1006.7 |
| 20260904233902 | 70 | 315 | 0.0 | 2.0 | 0.00 | 0.01 | 0.01 | 57 | 1006.7 |
| 20260904233357 | 69 | 262 | 0.0 | 2.0 | 0.00 | 0.01 | 0.01 | 57 | 1006.7 |
| 20260904233054 | 69 | 286 | 0.0 | 2.0 | 0.00 | 0.01 | 0.01 | 58 | 1006.1 |
| 20260904232853 | 70 | 268 | 0.0 | 2.0 | 0.00 | 0.01 | 0.01 | 60 | 1006.7 |
| 20260904232352 | 69 | 282 | 0.0 | 0.0 | 0.00 | 0.01 | 0.01 | 61 | 1006.7 |
| 20260904231848 | 70 | 264 | 0.0 | 1.0 | 0.00 | 0.01 | 0.01 | 60 | 1006.6 |
| 20260904231549 | 70 | 266 | 0.0 | 1.0 | 0.00 | 0.01 | 0.01 | 58 | 1006.1 |
| 20260904231348 | 70 | 266 | 0.0 | 1.0 | 0.00 | 0.01 | 0.01 | 58 | 1006.6 |
| 20260904230845 | 71 | 269 | 0.0 | 0.0 | 0.00 | 0.01 | 0.01 | 58 | 1006.3 |
| 20260904230346 | 71 | 269 | 0.0 | 1.0 | 0.00 | 0.01 | 0.01 | 58 | 1006.4 |
| 20260904230005 | 71 | 269 | 0.0 | 1.0 | 0.00 | 0.01 | 0.01 | 56 | 1005.6 |
| 20260904225904 | 71 | 269 | 0.0 | 1.0 | 0.00 | 0.01 | 0.01 | 57 | 1006.2 |
| 20260904225343 | 72 | 269 | 0.0 | 0.0 | 0.00 | 0.01 | 0.01 | 56 | 1006.4 |
| 20260904224837 | 72 | 283 | 0.0 | 0.0 | 0.00 | 0.01 | 0.01 | 56 | 1006.2 |
| 20260904224536 | 72 | 283 | 0.0 | 0.0 | 0.00 | 0.01 | 0.01 | 56 | 1005.6 |
| 20260904224333 | 73 | 283 | 0.0 | 0.0 | 0.00 | 0.01 | 0.01 | 56 | 1006.3 |
| 20260904223850 | 73 | 283 | 0.0 | 0.0 | 0.00 | 0.01 | 0.01 | 54 | 1006.3 |
| 20260904223348 | 74 | 283 | 0.0 | 1.0 | 0.00 | 0.01 | 0.01 | 54 | 1006.4 |
| 20260904223045 | 74 | 283 | 0.0 | 1.0 | 0.00 | 0.01 | 0.01 | 51 | 1005.7 |
| 20260904222843 | 75 | 283 | 0.0 | 1.0 | 0.00 | 0.01 | 0.01 | 50 | 1006.4 |
| 20260904222342 | 76 | 66 | 0.0 | 1.0 | 0.00 | 0.01 | 0.01 | 49 | 1006.4 |
| 20260904221902 | 77 | 323 | 0.0 | 1.0 | 0.00 | 0.01 | 0.01 | 48 | 1006.3 |
| 20260904221544 | 76 | 297 | 0.0 | 3.0 | 0.00 | 0.01 | 0.01 | 47 | 1005.7 |
| 20260904221340 | 77 | 288 | 0.0 | 3.0 | 0.00 | 0.01 | 0.01 | 45 | 1006.3 |
| 20260904220840 | 78 | 235 | 1.0 | 3.0 | 0.00 | 0.01 | 0.01 | 47 | 1006.3 |
| 20260904220401 | 79 | 260 | 0.0 | 2.0 | 0.00 | 0.01 | 0.01 | 47 | 1006.2 |
| 20260904220011 | 78 | 272 | 0.0 | 1.0 | 0.00 | 0.01 | 0.01 | 48 | 1005.7 |
| 20260904215910 | 79 | 272 | 0.0 | 1.0 | 0.00 | 0.01 | 0.01 | 48 | 1006.3 |
| 20260904215348 | 78 | 265 | 0.0 | 1.0 | 0.00 | 0.01 | 0.01 | 47 | 1006.3 |
| 20260904214844 | 78 | 266 | 0.0 | 1.0 | 0.00 | 0.01 | 0.01 | 46 | 1006.3 |
| 20260904214548 | 78 | 266 | 0.0 | 2.0 | 0.00 | 0.01 | 0.01 | 46 | 1005.7 |
| 20260904214344 | 79 | 266 | 0.0 | 2.0 | 0.00 | 0.01 | 0.01 | 46 | 1006.3 |
| 20260904213843 | 80 | 266 | 0.0 | 2.0 | 0.00 | 0.01 | 0.01 | 45 | 1006.3 |
| 20260904213343 | 81 | 309 | 0.0 | 1.0 | 0.00 | 0.01 | 0.01 | 41 | 1006.2 |
| 20260904213039 | 80 | 259 | 0.0 | 1.0 | 0.00 | 0.01 | 0.01 | 43 | 1005.6 |
| 20260904212837 | 81 | 309 | 0.0 | 1.0 | 0.00 | 0.01 | 0.01 | 42 | 1006.2 |
| 20260904212357 | 81 | 280 | 0.0 | 2.0 | 0.00 | 0.01 | 0.01 | 42 | 1006.2 |
| 20260904211853 | 81 | 287 | 1.0 | 2.0 | 0.00 | 0.01 | 0.01 | 43 | 1006.2 |
| 20260904211558 | 80 | 134 | 0.0 | 1.0 | 0.00 | 0.01 | 0.01 | 43 | 1005.7 |
| 20260904211350 | 80 | 45 | 0.0 | 1.0 | 0.00 | 0.01 | 0.01 | 42 | 1006.2 |
| 20260904210844 | 80 | 45 | 0.0 | 3.0 | 0.00 | 0.01 | 0.01 | 44 | 1006.2 |
| 20260904210343 | 80 | 111 | 0.0 | 5.0 | 0.00 | 0.01 | 0.01 | 42 | 1006.1 |
| 20260904210047 | 79 | 296 | 0.0 | 5.0 | 0.00 | 0.01 | 0.01 | 41 | 1005.5 |
| 20260904205842 | 80 | 255 | 1.0 | 5.0 | 0.00 | 0.01 | 0.01 | 43 | 1005.9 |
| 20260904205342 | 80 | 76 | 2.0 | 3.0 | 0.00 | 0.01 | 0.01 | 42 | 1006.0 |
| 20260904204858 | 81 | 22 | 1.0 | 3.0 | 0.00 | 0.01 | 0.01 | 43 | 1005.9 |
| 20260904204539 | 80 | 289 | 1.0 | 3.0 | 0.00 | 0.01 | 0.01 | 42 | 1005.4 |
| 20260904204338 | 81 | 170 | 1.0 | 3.0 | 0.00 | 0.01 | 0.01 | 43 | 1005.9 |
| 20260904203856 | 81 | 218 | 1.0 | 3.0 | 0.00 | 0.01 | 0.01 | 42 | 1005.9 |
| 20260904203335 | 81 | 274 | 1.0 | 3.0 | 0.00 | 0.01 | 0.01 | 46 | 1005.9 |
| 20260904203054 | 81 | 233 | 0.0 | 2.0 | 0.00 | 0.01 | 0.01 | 43 | 1005.3 |
| 20260904202852 | 81 | 225 | 0.0 | 5.0 | 0.00 | 0.01 | 0.01 | 42 | 1005.9 |
| 20260904202353 | 80 | 276 | 1.0 | 5.0 | 0.00 | 0.01 | 0.01 | 41 | 1006.0 |
| 20260904201907 | 79 | 360 | 0.0 | 1.0 | 0.00 | 0.01 | 0.01 | 44 | 1006.1 |
| 20260904201547 | 78 | 266 | 0.0 | 0.0 | 0.00 | 0.01 | 0.01 | 49 | 1005.5 |
| 20260904201345 | 78 | 292 | 0.0 | 1.0 | 0.00 | 0.01 | 0.01 | 49 | 1006.1 |
| 20260904200842 | 78 | 290 | 0.0 | 4.0 | 0.00 | 0.01 | 0.01 | 48 | 1006.1 |
| 20260904200344 | 78 | 250 | 0.0 | 5.0 | 0.00 | 0.01 | 0.01 | 46 | 1006.1 |
| 20260904200045 | 78 | 269 | 1.0 | 5.0 | 0.00 | 0.01 | 0.01 | 45 | 1005.6 |
| 20260904195843 | 78 | 7 | 1.0 | 5.0 | 0.00 | 0.01 | 0.01 | 45 | 1006.1 |
| 20260904195403 | 79 | 283 | 1.0 | 3.0 | 0.00 | 0.01 | 0.01 | 47 | 1006.0 |
| 20260904194840 | 79 | 280 | 0.0 | 6.0 | 0.00 | 0.01 | 0.01 | 45 | 1006.0 |
| 20260904194559 | 79 | 216 | 0.0 | 6.0 | 0.00 | 0.01 | 0.01 | 44 | 1005.5 |
| 20260904194359 | 80 | 224 | 1.0 | 6.0 | 0.00 | 0.01 | 0.01 | 42 | 1006.1 |
| 20260904193854 | 80 | 353 | 1.0 | 9.0 | 0.00 | 0.01 | 0.01 | 43 | 1006.1 |
| 20260904193408 | 80 | 307 | 3.0 | 9.0 | 0.00 | 0.01 | 0.01 | 41 | 1006.1 |
| 20260904193037 | 79 | 28 | 1.0 | 3.0 | 0.00 | 0.01 | 0.01 | 43 | 1005.5 |
| 20260904192836 | 79 | 293 | 1.0 | 4.0 | 0.00 | 0.01 | 0.01 | 43 | 1006.1 |
| 20260904192338 | 78 | 264 | 0.0 | 5.0 | 0.00 | 0.01 | 0.01 | 43 | 1006.2 |
| 20260904191839 | 79 | 222 | 1.0 | 5.0 | 0.00 | 0.01 | 0.01 | 41 | 1006.2 |
| 20260904191502 | 79 | 240 | 0.0 | 4.0 | 0.00 | 0.01 | 0.01 | 42 | 1005.6 |
| 20260904191348 | 79 | 233 | 1.0 | 4.0 | 0.00 | 0.01 | 0.01 | 41 | 1006.2 |
| 20260904190901 | 80 | 28 | 1.0 | 4.0 | 0.00 | 0.01 | 0.01 | 41 | 1006.2 |
| 20260904190404 | 81 | 328 | 1.0 | 3.0 | 0.00 | 0.01 | 0.01 | 41 | 1006.1 |
| 20260904190053 | 80 | 216 | 0.0 | 6.0 | 0.00 | 0.01 | 0.01 | 40 | 1005.5 |
| 20260904185849 | 81 | 220 | 1.0 | 6.0 | 0.00 | 0.01 | 0.01 | 38 | 1006.0 |
| 20260904185349 | 82 | 317 | 2.0 | 6.0 | 0.00 | 0.01 | 0.01 | 39 | 1005.9 |
| 20260904184846 | 82 | 86 | 1.0 | 8.0 | 0.00 | 0.01 | 0.01 | 42 | 1006.1 |
| 20260904184546 | 81 | 44 | 0.0 | 8.0 | 0.00 | 0.01 | 0.01 | 41 | 1005.4 |
| 20260904184345 | 81 | 4 | 1.0 | 8.0 | 0.00 | 0.01 | 0.01 | 40 | 1006.0 |
| 20260904183843 | 81 | 246 | 1.0 | 6.0 | 0.00 | 0.01 | 0.01 | 42 | 1006.0 |
| 20260904183343 | 80 | 265 | 1.0 | 5.0 | 0.00 | 0.01 | 0.01 | 39 | 1006.2 |
| 20260904183004 | 79 | 189 | 2.0 | 5.0 | 0.00 | 0.01 | 0.01 | 39 | 1005.7 |
| 20260904182902 | 80 | 248 | 2.0 | 4.0 | 0.00 | 0.01 | 0.01 | 40 | 1006.3 |
| 20260904182342 | 80 | 260 | 0.0 | 5.0 | 0.00 | 0.01 | 0.01 | 40 | 1006.3 |
| 20260904181841 | 81 | 273 | 0.0 | 5.0 | 0.00 | 0.01 | 0.01 | 41 | 1006.4 |
| 20260904181543 | 80 | 44 | 1.0 | 4.0 | 0.00 | 0.01 | 0.01 | 40 | 1005.9 |
| 20260904181342 | 80 | 283 | 1.0 | 4.0 | 0.00 | 0.01 | 0.01 | 42 | 1006.3 |
| 20260904180840 | 80 | 271 | 0.0 | 7.0 | 0.00 | 0.01 | 0.01 | 42 | 1006.3 |
| 20260904180340 | 80 | 217 | 1.0 | 7.0 | 0.00 | 0.01 | 0.01 | 42 | 1006.3 |
| 20260904180051 | 79 | 251 | 1.0 | 7.0 | 0.00 | 0.01 | 0.01 | 40 | 1005.8 |
| 20260904175835 | 80 | 262 | 1.0 | 6.0 | 0.00 | 0.01 | 0.01 | 41 | 1006.4 |
| 20260904175354 | 81 | 72 | 2.0 | 6.0 | 0.00 | 0.01 | 0.01 | 42 | 1006.4 |
| 20260904174849 | 81 | 42 | 2.0 | 6.0 | 0.00 | 0.01 | 0.01 | 43 | 1006.3 |
| 20260904174551 | 80 | 141 | 2.0 | 6.0 | 0.00 | 0.01 | 0.01 | 43 | 1005.6 |
| 20260904174349 | 81 | 33 | 1.0 | 4.0 | 0.00 | 0.01 | 0.01 | 43 | 1006.3 |
| 20260904173846 | 80 | 350 | 0.0 | 6.0 | 0.00 | 0.01 | 0.01 | 44 | 1006.3 |
| 20260904173346 | 81 | 258 | 2.0 | 7.0 | 0.00 | 0.01 | 0.01 | 41 | 1006.3 |
| 20260904173006 | 80 | 115 | 1.0 | 7.0 | 0.00 | 0.01 | 0.01 | 40 | 1005.9 |
| 20260904172904 | 80 | 300 | 2.0 | 7.0 | 0.00 | 0.01 | 0.01 | 43 | 1006.3 |
| 20260904172344 | 80 | 242 | 1.0 | 4.0 | 0.00 | 0.01 | 0.01 | 43 | 1006.3 |
| 20260904171841 | 79 | 136 | 0.0 | 6.0 | 0.00 | 0.01 | 0.01 | 47 | 1006.3 |
| 20260904171602 | 78 | 255 | 0.0 | 6.0 | 0.00 | 0.01 | 0.01 | 46 | 1005.8 |
| 20260904171356 | 79 | 233 | 2.0 | 6.0 | 0.00 | 0.01 | 0.01 | 46 | 1006.5 |
| 20260904170848 | 79 | 354 | 1.0 | 5.0 | 0.00 | 0.01 | 0.01 | 45 | 1006.3 |
| 20260904170347 | 79 | 279 | 0.0 | 6.0 | 0.00 | 0.01 | 0.01 | 45 | 1006.5 |
| 20260904170006 | 78 | 288 | 1.0 | 6.0 | 0.00 | 0.01 | 0.01 | 43 | 1006.1 |
| 20260904165904 | 79 | 269 | 1.0 | 6.0 | 0.00 | 0.01 | 0.01 | 44 | 1006.7 |
| 20260904165343 | 80 | 258 | 1.0 | 4.0 | 0.00 | 0.01 | 0.01 | 46 | 1006.5 |
| 20260904164839 | 80 | 275 | 2.0 | 6.0 | 0.00 | 0.01 | 0.01 | 43 | 1006.7 |
| 20260904164540 | 80 | 310 | 1.0 | 6.0 | 0.00 | 0.01 | 0.01 | 40 | 1006.1 |
| 20260904164339 | 81 | 347 | 2.0 | 8.0 | 0.00 | 0.01 | 0.01 | 40 | 1006.6 |
| 20260904163834 | 80 | 72 | 1.0 | 8.0 | 0.00 | 0.01 | 0.01 | 44 | 1006.5 |
| 20260904163354 | 80 | 23 | 2.0 | 5.0 | 0.00 | 0.01 | 0.01 | 43 | 1006.6 |
| 20260904163029 | 80 | 297 | 2.0 | 6.0 | 0.00 | 0.01 | 0.01 | 44 | 1006.0 |
| 20260904162343 | 80 | 6 | 2.0 | 6.0 | 0.00 | 0.01 | 0.01 | 44 | 1006.5 |
| 20260904161837 | 80 | 113 | 2.0 | 6.0 | 0.00 | 0.01 | 0.01 | 47 | 1006.6 |
| 20260904161539 | 79 | 176 | 2.0 | 6.0 | 0.00 | 0.01 | 0.01 | 45 | 1006.1 |
| 20260904161337 | 80 | 46 | 1.0 | 6.0 | 0.00 | 0.01 | 0.01 | 45 | 1006.6 |
| 20260904160915 | 80 | 26 | 2.0 | 6.0 | 0.00 | 0.01 | 0.01 | 46 | 1006.8 |
| 20260904160413 | 79 | 78 | 2.0 | 5.0 | 0.00 | 0.01 | 0.01 | 47 | 1006.9 |
| 20260904160054 | 79 | 248 | 1.0 | 5.0 | 0.00 | 0.01 | 0.01 | 47 | 1006.4 |
| 20260904155851 | 79 | 311 | 2.0 | 5.0 | 0.00 | 0.01 | 0.01 | 48 | 1007.0 |
| 20260904155348 | 79 | 62 | 2.0 | 6.0 | 0.00 | 0.01 | 0.01 | 47 | 1007.1 |
| 20260904154845 | 79 | 37 | 2.0 | 6.0 | 0.00 | 0.01 | 0.01 | 48 | 1007.1 |
| 20260904154547 | 78 | 319 | 1.0 | 6.0 | 0.00 | 0.01 | 0.01 | 45 | 1006.7 |
| 20260904154347 | 78 | 255 | 1.0 | 4.0 | 0.00 | 0.01 | 0.01 | 47 | 1007.2 |
| 20260904153843 | 78 | 273 | 2.0 | 7.0 | 0.00 | 0.01 | 0.01 | 45 | 1007.1 |
| 20260904153343 | 78 | 316 | 2.0 | 7.0 | 0.00 | 0.01 | 0.01 | 45 | 1007.1 |
| 20260904153037 | 77 | 258 | 1.0 | 6.0 | 0.00 | 0.01 | 0.01 | 47 | 1006.7 |
| 20260904152836 | 78 | 154 | 3.0 | 6.0 | 0.00 | 0.01 | 0.01 | 46 | 1007.0 |
| 20260904152337 | 77 | 265 | 2.0 | 9.0 | 0.00 | 0.01 | 0.01 | 46 | 1007.1 |
| 20260904151852 | 77 | 296 | 3.0 | 9.0 | 0.00 | 0.01 | 0.01 | 46 | 1007.1 |
| 20260904151551 | 76 | 302 | 3.0 | 9.0 | 0.00 | 0.01 | 0.01 | 46 | 1006.6 |
| 20260904151350 | 77 | 193 | 3.0 | 7.0 | 0.00 | 0.01 | 0.01 | 46 | 1007.1 |
| 20260904150907 | 77 | 290 | 2.0 | 7.0 | 0.00 | 0.01 | 0.01 | 49 | 1007.1 |
| 20260904150347 | 77 | 83 | 1.0 | 4.0 | 0.00 | 0.01 | 0.01 | 51 | 1007.1 |
| 20260904150047 | 76 | 225 | 1.0 | 7.0 | 0.00 | 0.01 | 0.01 | 48 | 1006.7 |
| 20260904145845 | 76 | 213 | 2.0 | 7.0 | 0.00 | 0.01 | 0.01 | 49 | 1007.2 |
| 20260904145404 | 76 | 240 | 2.0 | 4.0 | 0.00 | 0.01 | 0.01 | 50 | 1007.2 |
| 20260904144841 | 75 | 293 | 1.0 | 4.0 | 0.00 | 0.01 | 0.01 | 51 | 1007.1 |
| 20260904144544 | 74 | 314 | 0.0 | 4.0 | 0.00 | 0.01 | 0.01 | 52 | 1006.8 |
| 20260904144342 | 74 | 229 | 0.0 | 2.0 | 0.00 | 0.01 | 0.01 | 53 | 1007.3 |
| 20260904143835 | 74 | 210 | 0.0 | 5.0 | 0.00 | 0.01 | 0.01 | 53 | 1007.2 |
| 20260904143337 | 73 | 40 | 1.0 | 5.0 | 0.00 | 0.01 | 0.01 | 53 | 1007.3 |
| 20260904143055 | 73 | 144 | 0.0 | 4.0 | 0.00 | 0.01 | 0.01 | 54 | 1007.0 |
| 20260904142853 | 73 | 264 | 0.0 | 4.0 | 0.00 | 0.01 | 0.01 | 55 | 1007.3 |
| 20260904142335 | 72 | 238 | 2.0 | 4.0 | 0.00 | 0.01 | 0.01 | 54 | 1007.5 |
| 20260904141853 | 72 | 65 | 1.0 | 3.0 | 0.00 | 0.01 | 0.01 | 55 | 1007.6 |
| 20260904141556 | 71 | 229 | 0.0 | 4.0 | 0.00 | 0.01 | 0.01 | 56 | 1007.0 |
| 20260904141353 | 72 | 329 | 0.0 | 5.0 | 0.00 | 0.01 | 0.01 | 56 | 1007.5 |
| 20260904140849 | 71 | 58 | 1.0 | 5.0 | 0.00 | 0.01 | 0.01 | 56 | 1007.5 |
| 20260904140349 | 70 | 265 | 1.0 | 3.0 | 0.00 | 0.01 | 0.01 | 63 | 1007.6 |
| 20260904140059 | 69 | 222 | 0.0 | 2.0 | 0.00 | 0.01 | 0.01 | 65 | 1007.0 |
| 20260904135842 | 69 | 52 | 0.0 | 2.0 | 0.00 | 0.01 | 0.01 | 66 | 1007.5 |
| 20260904135404 | 68 | 68 | 0.0 | 1.0 | 0.00 | 0.01 | 0.01 | 66 | 1007.5 |
| 20260904134841 | 68 | 10 | 0.0 | 1.0 | 0.00 | 0.01 | 0.01 | 66 | 1007.6 |
| 20260904134543 | 68 | 274 | 0.0 | 1.0 | 0.00 | 0.01 | 0.01 | 66 | 1007.1 |
| 20260904134339 | 68 | 274 | 0.0 | 1.0 | 0.00 | 0.01 | 0.01 | 66 | 1007.5 |
| 20260904133836 | 68 | 68 | 0.0 | 0.0 | 0.00 | 0.01 | 0.01 | 66 | 1007.6 |
| 20260904133336 | 67 | 68 | 0.0 | 0.0 | 0.00 | 0.01 | 0.01 | 66 | 1007.6 |
| 20260904133055 | 67 | 235 | 0.0 | 0.0 | 0.00 | 0.01 | 0.01 | 66 | 1007.0 |
| 20260904132850 | 67 | 235 | 0.0 | 0.0 | 0.00 | 0.01 | 0.01 | 66 | 1007.5 |
| 20260904132349 | 67 | 235 | 0.0 | 0.0 | 0.00 | 0.01 | 0.01 | 66 | 1007.6 |
| 20260904131907 | 67 | 235 | 0.0 | 0.0 | 0.00 | 0.01 | 0.01 | 66 | 1007.5 |
| 20260904131548 | 66 | 267 | 0.0 | 0.0 | 0.00 | 0.01 | 0.01 | 66 | 1007.2 |
| 20260904131346 | 66 | 267 | 0.0 | 0.0 | 0.00 | 0.01 | 0.01 | 66 | 1007.7 |
| 20260904130844 | 66 | 267 | 0.0 | 0.0 | 0.00 | 0.01 | 0.01 | 66 | 1007.7 |
| 20260904130055 | 65 | 267 | 0.0 | 0.0 | 0.00 | 0.01 | 0.01 | 66 | 1007.1 |
| 20260904125851 | 65 | 267 | 0.0 | 0.0 | 0.00 | 0.01 | 0.01 | 66 | 1007.6 |
| 20260904125340 | 65 | 267 | 0.0 | 0.0 | 0.00 | 0.01 | 0.01 | 66 | 1007.6 |
| 20260904124851 | 65 | 267 | 0.0 | 0.0 | 0.00 | 0.01 | 0.01 | 66 | 1007.6 |
| 20260904124513 | 64 | 267 | 0.0 | 0.0 | 0.00 | 0.01 | 0.01 | 66 | 1007.1 |
| 20260904124411 | 65 | 267 | 0.0 | 0.0 | 0.00 | 0.01 | 0.01 | 66 | 1007.6 |
| 20260904123849 | 64 | 267 | 0.0 | 0.0 | 0.00 | 0.01 | 0.01 | 66 | 1007.4 |
| 20260904123350 | 64 | 267 | 0.0 | 0.0 | 0.00 | 0.01 | 0.01 | 66 | 1007.5 |
| 20260904123050 | 63 | 267 | 0.0 | 0.0 | 0.00 | 0.01 | 0.01 | 66 | 1007.0 |
| 20260904122849 | 64 | 267 | 0.0 | 0.0 | 0.00 | 0.01 | 0.01 | 66 | 1007.6 |
| 20260904122348 | 63 | 267 | 0.0 | 0.0 | 0.00 | 0.01 | 0.01 | 66 | 1007.5 |
| 20260904121846 | 63 | 267 | 0.0 | 0.0 | 0.00 | 0.01 | 0.01 | 66 | 1007.5 |
| 20260904121546 | 62 | 267 | 0.0 | 0.0 | 0.00 | 0.01 | 0.01 | 66 | 1007.1 |
| 20260904121345 | 62 | 267 | 0.0 | 0.0 | 0.00 | 0.01 | 0.01 | 66 | 1007.6 |
| 20260904120904 | 62 | 267 | 0.0 | 0.0 | 0.00 | 0.01 | 0.01 | 66 | 1007.4 |
| 20260904120337 | 62 | 267 | 0.0 | 0.0 | 0.00 | 0.01 | 0.01 | 66 | 1007.4 |
| 20260904120056 | 61 | 267 | 0.0 | 0.0 | 0.00 | 0.01 | 0.01 | 66 | 1006.9 |
| 20260904115850 | 61 | 267 | 0.0 | 0.0 | 0.00 | 0.01 | 0.01 | 66 | 1007.4 |
| 20260904115349 | 61 | 267 | 0.0 | 0.0 | 0.00 | 0.01 | 0.01 | 66 | 1007.4 |
| 20260904114504 | 60 | 267 | 0.0 | 0.0 | 0.00 | 0.01 | 0.01 | 66 | 1007.1 |
| 20260904114404 | 61 | 267 | 0.0 | 0.0 | 0.00 | 0.01 | 0.01 | 66 | 1007.6 |
| 20260904113837 | 61 | 267 | 0.0 | 0.0 | 0.00 | 0.01 | 0.01 | 66 | 1007.7 |
| 20260904113337 | 61 | 267 | 0.0 | 0.0 | 0.00 | 0.01 | 0.01 | 66 | 1007.6 |
| 20260904113055 | 60 | 267 | 0.0 | 0.0 | 0.00 | 0.01 | 0.01 | 66 | 1007.1 |
| 20260904112854 | 60 | 267 | 0.0 | 0.0 | 0.00 | 0.01 | 0.01 | 66 | 1007.6 |
| 20260904112353 | 60 | 267 | 0.0 | 0.0 | 0.00 | 0.01 | 0.01 | 66 | 1007.5 |
| 20260904111850 | 60 | 267 | 0.0 | 0.0 | 0.00 | 0.01 | 0.01 | 66 | 1007.4 |
| 20260904111550 | 60 | 267 | 0.0 | 0.0 | 0.00 | 0.01 | 0.01 | 66 | 1006.9 |
| 20260904111346 | 60 | 267 | 0.0 | 0.0 | 0.00 | 0.01 | 0.01 | 66 | 1007.4 |
| 20260904110844 | 60 | 267 | 0.0 | 0.0 | 0.00 | 0.01 | 0.01 | 66 | 1007.5 |
| 20260904110404 | 60 | 267 | 0.0 | 0.0 | 0.00 | 0.01 | 0.01 | 66 | 1007.3 |
| 20260904110003 | 60 | 267 | 0.0 | 0.0 | 0.00 | 0.01 | 0.01 | 66 | 1006.9 |
| 20260904105901 | 60 | 267 | 0.0 | 0.0 | 0.00 | 0.01 | 0.01 | 66 | 1007.3 |
| 20260904105340 | 60 | 267 | 0.0 | 0.0 | 0.00 | 0.01 | 0.01 | 66 | 1007.4 |
| 20260904104839 | 60 | 267 | 0.0 | 0.0 | 0.00 | 0.01 | 0.01 | 66 | 1007.4 |
| 20260904104519 | 59 | 267 | 0.0 | 0.0 | 0.00 | 0.01 | 0.01 | 66 | 1006.8 |
| 20260904104416 | 60 | 267 | 0.0 | 0.0 | 0.00 | 0.01 | 0.01 | 66 | 1007.3 |
| 20260904103847 | 60 | 267 | 0.0 | 0.0 | 0.00 | 0.01 | 0.01 | 66 | 1007.3 |
| 20260904103346 | 60 | 267 | 0.0 | 0.0 | 0.00 | 0.01 | 0.01 | 66 | 1007.2 |
| 20260904103003 | 60 | 267 | 0.0 | 0.0 | 0.00 | 0.01 | 0.01 | 66 | 1006.9 |
| 20260904102902 | 60 | 267 | 0.0 | 0.0 | 0.00 | 0.01 | 0.01 | 66 | 1007.2 |
| 20260904102341 | 60 | 267 | 0.0 | 0.0 | 0.00 | 0.01 | 0.01 | 66 | 1007.2 |
| 20260904101838 | 60 | 267 | 0.0 | 0.0 | 0.00 | 0.01 | 0.01 | 66 | 1007.2 |
| 20260904101537 | 60 | 267 | 0.0 | 0.0 | 0.00 | 0.01 | 0.01 | 66 | 1006.8 |
| 20260904101337 | 60 | 267 | 0.0 | 0.0 | 0.00 | 0.01 | 0.01 | 66 | 1007.2 |
| 20260904100914 | 61 | 267 | 0.0 | 0.0 | 0.00 | 0.01 | 0.01 | 66 | 1007.1 |
| 20260904100350 | 61 | 267 | 0.0 | 0.0 | 0.00 | 0.01 | 0.01 | 66 | 1006.9 |
| 20260904100057 | 60 | 267 | 0.0 | 0.0 | 0.00 | 0.01 | 0.01 | 66 | 1006.6 |
| 20260904095847 | 61 | 267 | 0.0 | 0.0 | 0.00 | 0.03 | 0.01 | 66 | 1007.1 |
| 20260904095347 | 61 | 267 | 0.0 | 0.0 | 0.00 | 0.03 | 0.01 | 66 | 1007.1 |
| 20260904094840 | 61 | 267 | 0.0 | 0.0 | 0.00 | 0.03 | 0.01 | 66 | 1007.0 |
| 20260904094502 | 61 | 267 | 0.0 | 0.0 | 0.00 | 0.03 | 0.01 | 66 | 1006.5 |
| 20260904094359 | 61 | 267 | 0.0 | 0.0 | 0.00 | 0.03 | 0.01 | 66 | 1007.0 |
| 20260904093836 | 61 | 267 | 0.0 | 0.0 | 0.01 | 0.03 | 0.01 | 66 | 1007.1 |
| 20260904093336 | 62 | 267 | 0.0 | 0.0 | 0.01 | 0.03 | 0.01 | 66 | 1007.1 |
| 20260904093056 | 61 | 267 | 0.0 | 0.0 | 0.01 | 0.03 | 0.01 | 66 | 1006.6 |
| 20260904092853 | 62 | 267 | 0.0 | 0.0 | 0.01 | 0.03 | 0.01 | 66 | 1007.1 |
| 20260904092354 | 62 | 267 | 0.0 | 0.0 | 0.01 | 0.03 | 0.01 | 66 | 1007.1 |
| 20260904091851 | 62 | 267 | 0.0 | 0.0 | 0.01 | 0.03 | 0.01 | 66 | 1007.0 |
| 20260904091552 | 61 | 267 | 0.0 | 0.0 | 0.01 | 0.03 | 0.01 | 66 | 1006.5 |
| 20260904091351 | 62 | 267 | 0.0 | 0.0 | 0.01 | 0.03 | 0.01 | 65 | 1007.0 |
| 20260904090849 | 62 | 267 | 0.0 | 0.0 | 0.01 | 0.03 | 0.01 | 65 | 1007.1 |
| 20260904090348 | 62 | 267 | 0.0 | 0.0 | 0.01 | 0.03 | 0.01 | 66 | 1007.1 |
| 20260904090047 | 62 | 267 | 0.0 | 0.0 | 0.01 | 0.03 | 0.01 | 65 | 1006.6 |
| 20260904085845 | 62 | 267 | 0.0 | 0.0 | 0.01 | 0.03 | 0.01 | 65 | 1007.1 |
| 20260904085342 | 62 | 267 | 0.0 | 0.0 | 0.01 | 0.03 | 0.01 | 66 | 1006.9 |
| 20260904084838 | 63 | 267 | 0.0 | 0.0 | 0.01 | 0.03 | 0.01 | 65 | 1007.0 |
| 20260904084539 | 62 | 267 | 0.0 | 0.0 | 0.01 | 0.03 | 0.01 | 65 | 1006.6 |
| 20260904084337 | 63 | 267 | 0.0 | 0.0 | 0.01 | 0.03 | 0.01 | 65 | 1006.9 |
| 20260904083835 | 63 | 267 | 0.0 | 0.0 | 0.00 | 0.02 | 0.00 | 65 | 1007.0 |
| 20260904083335 | 63 | 267 | 0.0 | 0.0 | 0.00 | 0.02 | 0.00 | 65 | 1007.1 |
| 20260904083054 | 62 | 267 | 0.0 | 0.0 | 0.00 | 0.02 | 0.00 | 65 | 1006.6 |
| 20260904082853 | 63 | 267 | 0.0 | 0.0 | 0.00 | 0.02 | 0.00 | 65 | 1006.9 |
| 20260904082353 | 63 | 267 | 0.0 | 0.0 | 0.00 | 0.02 | 0.00 | 65 | 1007.0 |
| 20260904081848 | 63 | 267 | 0.0 | 0.0 | 0.00 | 0.02 | 0.00 | 65 | 1007.1 |
| 20260904081549 | 63 | 267 | 0.0 | 0.0 | 0.00 | 0.02 | 0.00 | 65 | 1006.6 |
| 20260904081347 | 63 | 267 | 0.0 | 0.0 | 0.00 | 0.02 | 0.00 | 65 | 1007.2 |
| 20260904080843 | 63 | 267 | 0.0 | 0.0 | 0.00 | 0.02 | 0.00 | 65 | 1007.3 |
| 20260904080404 | 64 | 267 | 0.0 | 0.0 | 0.00 | 0.02 | 0.00 | 65 | 1007.3 |
| 20260904080056 | 63 | 267 | 0.0 | 0.0 | 0.00 | 0.02 | 0.00 | 65 | 1006.9 |
| 20260904075855 | 64 | 267 | 0.0 | 0.0 | 0.00 | 0.02 | 0.00 | 65 | 1007.4 |
| 20260904075336 | 64 | 267 | 0.0 | 0.0 | 0.00 | 0.02 | 0.00 | 65 | 1007.4 |
| 20260904074852 | 64 | 267 | 0.0 | 0.0 | 0.00 | 0.02 | 0.00 | 65 | 1007.3 |
| 20260904074606 | 63 | 267 | 0.0 | 0.0 | 0.00 | 0.02 | 0.00 | 65 | 1006.9 |